Time,TemperatureF,DewpointF,PressureIn,WindDirection,WindDirectionDegrees,WindSpeedMPH,WindSpeedGustMPH,Humidity,HourlyPrecipIn,Conditions,Clouds,dailyrainin,SoftwareType,DateUTC
2013-06-27 00:02:00,77.0,73.0,29.78,West,280,0.0,0.0,87,0.00,,,0.40,,2013-06-27 05:02:00,
2013-06-27 00:12:00,77.0,73.0,29.78,West,280,0.0,0.0,87,0.00,,,0.40,,2013-06-27 05:12:00,
2013-06-27 00:22:00,77.0,73.0,29.78,West,280,0.0,0.0,87,0.00,,,0.40,,2013-06-27 05:22:00,
2013-06-27 00:32:00,76.0,73.0,29.79,West,260,3.0,3.0,90,0.00,,,0.32,,2013-06-27 05:32:00,
2013-06-27 00:42:00,76.0,73.0,29.79,West,260,3.0,3.0,90,0.00,,,0.32,,2013-06-27 05:42:00,
2013-06-27 00:53:00,76.0,73.0,29.79,West,260,3.0,3.0,90,0.00,,,0.32,,2013-06-27 05:53:00,
2013-06-27 01:01:00,76.0,73.0,29.79,West,260,3.0,3.0,90,0.00,,,0.32,,2013-06-27 06:01:00,
2013-06-27 01:12:00,76.0,73.0,29.79,West,260,3.0,3.0,90,0.00,,,0.32,,2013-06-27 06:12:00,
2013-06-27 01:22:00,76.0,73.0,29.79,West,260,3.0,3.0,90,0.00,,,0.32,,2013-06-27 06:22:00,
2013-06-27 01:34:00,75.0,72.0,29.80,West,260,0.0,3.0,90,0.00,,,0.32,,2013-06-27 06:34:00,
2013-06-27 01:43:00,75.0,72.0,29.80,West,260,0.0,3.0,90,0.00,,,0.32,,2013-06-27 06:43:00,
2013-06-27 01:53:00,75.0,72.0,29.80,West,260,0.0,0.0,90,0.00,,,0.32,,2013-06-27 06:53:00,
2013-06-27 02:02:00,75.0,72.0,29.80,West,260,0.0,0.0,90,0.00,,,0.32,,2013-06-27 07:02:00,
2013-06-27 02:12:00,75.0,72.0,29.80,West,260,0.0,0.0,90,0.00,,,0.32,,2013-06-27 07:12:00,
2013-06-27 02:22:00,75.0,72.0,29.80,West,260,0.0,0.0,90,0.00,,,0.32,,2013-06-27 07:22:00,
2013-06-27 02:33:00,74.0,72.0,29.79,West,260,0.0,0.0,93,0.00,,,0.32,,2013-06-27 07:33:00,
2013-06-27 02:42:00,74.0,72.0,29.79,West,260,0.0,0.0,93,0.00,,,0.32,,2013-06-27 07:42:00,
2013-06-27 02:52:00,74.0,72.0,29.79,West,260,0.0,0.0,93,0.00,,,0.32,,2013-06-27 07:52:00,
2013-06-27 03:01:00,75.0,72.0,29.79,West,270,5.0,5.0,90,0.00,,,0.32,,2013-06-27 08:01:00,
2013-06-27 03:11:00,75.0,72.0,29.79,West,270,5.0,5.0,90,0.00,,,0.32,,2013-06-27 08:11:00,
2013-06-27 03:22:00,75.0,72.0,29.79,West,270,5.0,5.0,90,0.00,,,0.32,,2013-06-27 08:22:00,
2013-06-27 03:34:00,75.0,72.0,29.78,West,270,3.0,5.0,90,0.00,,,0.32,,2013-06-27 08:34:00,
2013-06-27 03:43:00,75.0,72.0,29.78,West,270,3.0,5.0,90,0.00,,,0.32,,2013-06-27 08:43:00,
2013-06-27 03:52:00,75.0,72.0,29.78,West,270,3.0,3.0,90,0.00,,,0.32,,2013-06-27 08:52:00,
2013-06-27 04:02:00,75.0,72.0,29.78,West,270,3.0,3.0,90,0.00,,,0.32,,2013-06-27 09:02:00,
2013-06-27 04:11:00,75.0,72.0,29.78,West,270,3.0,3.0,90,0.00,,,0.32,,2013-06-27 09:11:00,
2013-06-27 04:22:00,75.0,72.0,29.78,West,270,3.0,3.0,90,0.00,,,0.32,,2013-06-27 09:22:00,
2013-06-27 04:34:00,75.0,72.0,29.79,West,270,5.0,5.0,90,0.00,,,0.32,,2013-06-27 09:34:00,
2013-06-27 04:43:00,75.0,72.0,29.79,West,270,5.0,5.0,90,0.00,,,0.32,,2013-06-27 09:43:00,
2013-06-27 04:53:00,75.0,72.0,29.79,West,270,5.0,5.0,90,0.00,,,0.32,,2013-06-27 09:53:00,
2013-06-27 05:01:00,75.0,72.0,29.79,West,270,5.0,5.0,90,0.00,,,0.32,,2013-06-27 10:01:00,
2013-06-27 05:11:00,75.0,72.0,29.79,West,270,5.0,5.0,90,0.00,,,0.32,,2013-06-27 10:11:00,
2013-06-27 05:22:00,75.0,72.0,29.79,West,270,5.0,5.0,90,0.00,,,0.32,,2013-06-27 10:22:00,
2013-06-27 05:32:00,75.0,72.0,29.81,WNW,290,6.0,6.0,90,0.00,,,0.32,,2013-06-27 10:32:00,
2013-06-27 05:44:00,75.0,72.0,29.81,WNW,290,6.0,6.0,90,0.00,,,0.32,,2013-06-27 10:44:00,
2013-06-27 05:54:00,75.0,72.0,29.81,WNW,290,6.0,6.0,90,0.00,,,0.32,,2013-06-27 10:54:00,
2013-06-27 06:01:00,75.0,72.0,29.81,WNW,290,6.0,6.0,90,0.00,,,0.32,,2013-06-27 11:01:00,
2013-06-27 06:11:00,75.0,72.0,29.81,WNW,290,6.0,6.0,90,0.00,,,0.32,,2013-06-27 11:11:00,
2013-06-27 06:22:00,75.0,72.0,29.81,WNW,290,6.0,6.0,90,0.00,,,0.32,,2013-06-27 11:22:00,
2013-06-27 06:33:00,74.0,70.0,29.82,WNW,290,6.0,6.0,87,0.00,,,0.32,,2013-06-27 11:33:00,
2013-06-27 06:43:00,74.0,70.0,29.82,WNW,290,6.0,6.0,87,0.00,,,0.32,,2013-06-27 11:43:00,
2013-06-27 06:52:00,74.0,70.0,29.82,WNW,290,6.0,6.0,87,0.00,,,0.32,,2013-06-27 11:52:00,
2013-06-27 07:02:00,74.0,70.0,29.82,WNW,290,6.0,6.0,87,0.00,,,0.32,,2013-06-27 12:02:00,
2013-06-27 07:11:00,74.0,70.0,29.82,WNW,290,6.0,6.0,87,0.00,,,0.32,,2013-06-27 12:11:00,
2013-06-27 07:22:00,74.0,70.0,29.82,WNW,290,6.0,6.0,87,0.00,,,0.32,,2013-06-27 12:22:00,
2013-06-27 07:34:00,75.0,70.0,29.82,WNW,300,6.0,6.0,84,0.00,,,0.32,,2013-06-27 12:34:00,
2013-06-27 07:42:00,75.0,70.0,29.82,WNW,300,6.0,6.0,84,0.00,,,0.32,,2013-06-27 12:42:00,
2013-06-27 08:01:00,75.0,70.0,29.82,WNW,300,6.0,6.0,84,0.00,,,0.32,,2013-06-27 13:01:00,
2013-06-27 08:11:00,75.0,70.0,29.82,WNW,300,6.0,6.0,84,0.00,,,0.32,,2013-06-27 13:11:00,
2013-06-27 08:22:00,75.0,70.0,29.82,WNW,300,6.0,6.0,84,0.00,,,0.17,,2013-06-27 13:22:00,
2013-06-27 08:34:00,77.0,70.0,29.84,NW,310,8.0,8.0,78,0.00,,,0.17,,2013-06-27 13:34:00,
2013-06-27 08:43:00,77.0,70.0,29.84,NW,310,8.0,8.0,78,0.00,,,0.17,,2013-06-27 13:43:00,
2013-06-27 08:52:00,77.0,70.0,29.84,NW,310,8.0,8.0,78,0.00,,,0.17,,2013-06-27 13:52:00,
2013-06-27 09:02:00,77.0,70.0,29.84,NW,310,8.0,8.0,78,0.00,,,0.17,,2013-06-27 14:02:00,
2013-06-27 09:11:00,77.0,70.0,29.84,NW,310,8.0,8.0,78,0.00,,,0.17,,2013-06-27 14:11:00,
2013-06-27 09:22:00,77.0,70.0,29.84,NW,310,8.0,8.0,78,0.00,,,0.01,,2013-06-27 14:22:00,
2013-06-27 09:33:00,80.0,70.0,29.84,NW,310,8.0,8.0,71,0.00,,,0.01,,2013-06-27 14:33:00,
2013-06-27 09:43:00,80.0,70.0,29.84,NW,310,8.0,8.0,71,0.00,,,0.01,,2013-06-27 14:43:00,
2013-06-27 09:52:00,80.0,70.0,29.84,NW,310,8.0,8.0,71,0.00,,,0.01,,2013-06-27 14:52:00,
2013-06-27 10:12:00,80.0,70.0,29.84,NW,310,8.0,8.0,71,0.00,,,0.01,,2013-06-27 15:12:00,
2013-06-27 10:22:00,80.0,70.0,29.84,NW,310,8.0,8.0,71,0.00,,,0.01,,2013-06-27 15:22:00,
2013-06-27 10:33:00,82.0,69.0,29.84,NNW,340,8.0,8.0,66,0.00,,,0.00,,2013-06-27 15:33:00,
2013-06-27 10:42:00,82.0,69.0,29.84,NNW,340,8.0,8.0,66,0.00,,,0.00,,2013-06-27 15:42:00,
2013-06-27 10:52:00,82.0,69.0,29.84,NNW,340,8.0,8.0,66,0.00,,,0.00,,2013-06-27 15:52:00,
2013-06-27 11:02:00,82.0,69.0,29.84,NNW,340,8.0,8.0,66,0.00,,,0.00,,2013-06-27 16:02:00,
2013-06-27 11:11:00,82.0,69.0,29.84,NNW,340,8.0,8.0,66,0.00,,,0.00,,2013-06-27 16:11:00,
2013-06-27 11:23:00,82.0,69.0,29.84,NNW,340,8.0,8.0,66,0.00,,,0.00,,2013-06-27 16:23:00,
2013-06-27 11:34:00,85.0,70.0,29.85,NW,320,10.0,20.0,61,0.00,,,0.00,,2013-06-27 16:34:00,
2013-06-27 11:43:00,85.0,70.0,29.85,NW,320,10.0,20.0,61,0.00,,,0.00,,2013-06-27 16:43:00,
2013-06-27 11:53:00,85.0,70.0,29.85,NW,320,10.0,20.0,61,0.00,,,0.00,,2013-06-27 16:53:00,
2013-06-27 12:01:00,85.0,70.0,29.85,NW,320,10.0,20.0,61,0.00,,,0.00,,2013-06-27 17:01:00,
2013-06-27 12:11:00,85.0,70.0,29.85,NW,320,10.0,20.0,61,0.00,,,0.00,,2013-06-27 17:11:00,
2013-06-27 12:22:00,85.0,70.0,29.85,NW,320,10.0,20.0,61,0.00,,,0.00,,2013-06-27 17:22:00,
2013-06-27 12:33:00,87.0,69.0,29.85,NNW,340,10.0,20.0,55,0.00,,,0.00,,2013-06-27 17:33:00,
2013-06-27 12:43:00,87.0,69.0,29.85,NNW,340,10.0,20.0,55,0.00,,,0.00,,2013-06-27 17:43:00,
2013-06-27 12:53:00,87.0,69.0,29.85,NNW,340,10.0,10.0,55,0.00,,,0.00,,2013-06-27 17:53:00,
2013-06-27 13:01:00,87.0,69.0,29.85,NNW,340,10.0,10.0,55,0.00,,,0.00,,2013-06-27 18:01:00,
2013-06-27 13:11:00,87.0,69.0,29.85,NNW,340,10.0,10.0,55,0.00,,,0.00,,2013-06-27 18:11:00,
2013-06-27 13:22:00,87.0,69.0,29.85,NNW,340,10.0,10.0,55,0.00,,,0.00,,2013-06-27 18:22:00,
2013-06-27 13:32:00,87.0,69.0,29.85,NNW,340,10.0,10.0,55,0.00,,,0.00,,2013-06-27 18:32:00,
2013-06-27 13:44:00,87.0,69.0,29.85,NNW,340,10.0,10.0,55,0.00,,,0.00,,2013-06-27 18:44:00,
2013-06-27 13:52:00,87.0,69.0,29.85,NNW,340,10.0,10.0,55,0.00,,,0.00,,2013-06-27 18:52:00,
2013-06-27 14:01:00,87.0,69.0,29.85,NNW,340,10.0,10.0,55,0.00,,,0.00,,2013-06-27 19:01:00,
2013-06-27 14:11:00,87.0,69.0,29.85,NNW,340,10.0,10.0,55,0.00,,,0.00,,2013-06-27 19:11:00,
2013-06-27 14:23:00,87.0,69.0,29.85,NNW,340,10.0,10.0,55,0.00,,,0.00,,2013-06-27 19:23:00,
2013-06-27 14:34:00,86.0,65.0,29.85,WNW,300,8.0,10.0,49,0.00,,,0.00,,2013-06-27 19:34:00,
2013-06-27 14:42:00,86.0,65.0,29.85,WNW,300,8.0,10.0,49,0.00,,,0.00,,2013-06-27 19:42:00,
2013-06-27 14:53:00,86.0,65.0,29.85,WNW,300,8.0,8.0,49,0.00,,,0.00,,2013-06-27 19:53:00,
2013-06-27 15:01:00,86.0,65.0,29.85,WNW,300,8.0,8.0,49,0.00,,,0.00,,2013-06-27 20:01:00,
2013-06-27 15:11:00,86.0,65.0,29.85,WNW,300,8.0,8.0,49,0.00,,,0.00,,2013-06-27 20:11:00,
2013-06-27 15:22:00,86.0,65.0,29.85,WNW,300,8.0,8.0,49,0.00,,,0.00,,2013-06-27 20:22:00,
2013-06-27 15:36:00,86.0,68.0,29.86,West,270,9.0,9.0,55,0.00,,,0.00,,2013-06-27 20:36:00,
2013-06-27 15:45:00,86.0,68.0,29.86,West,270,9.0,9.0,55,0.00,,,0.00,,2013-06-27 20:45:00,
2013-06-27 15:55:00,86.0,68.0,29.86,West,270,9.0,9.0,55,0.00,,,0.00,,2013-06-27 20:55:00,
2013-06-27 16:24:00,86.0,68.0,29.86,West,270,9.0,9.0,55,0.00,,,0.00,,2013-06-27 21:24:00,
2013-06-27 16:36:00,87.0,69.0,29.84,West,260,13.0,13.0,55,0.00,,,0.00,,2013-06-27 21:36:00,
2013-06-27 16:46:00,87.0,69.0,29.84,West,260,13.0,13.0,55,0.00,,,0.00,,2013-06-27 21:46:00,
2013-06-27 16:55:00,87.0,69.0,29.84,West,260,13.0,13.0,55,0.00,,,0.00,,2013-06-27 21:55:00,
2013-06-27 17:06:00,87.0,69.0,29.84,West,260,13.0,13.0,55,0.00,,,0.00,,2013-06-27 22:06:00,
2013-06-27 17:14:00,87.0,69.0,29.84,West,260,13.0,13.0,55,0.00,,,0.00,,2013-06-27 22:14:00,
2013-06-27 17:34:00,85.0,68.0,29.81,West,280,16.0,30.0,57,0.00,,,0.00,,2013-06-27 22:34:00,
2013-06-27 17:48:00,85.0,68.0,29.81,West,280,16.0,30.0,57,0.00,,,0.00,,2013-06-27 22:48:00,
2013-06-27 17:58:00,85.0,68.0,29.81,West,280,16.0,30.0,57,0.00,,,0.00,,2013-06-27 22:58:00,
2013-06-27 18:05:00,85.0,68.0,29.81,West,280,16.0,30.0,57,0.00,,,0.00,,2013-06-27 23:05:00,
2013-06-27 18:15:00,85.0,68.0,29.81,West,280,16.0,30.0,57,0.00,,,0.00,,2013-06-27 23:15:00,
2013-06-27 18:25:00,85.0,68.0,29.81,West,280,16.0,30.0,57,0.00,,,0.00,,2013-06-27 23:25:00,
2013-06-27 18:34:00,83.0,67.0,29.79,WNW,290,8.0,30.0,58,0.00,,,0.00,,2013-06-27 23:34:00,
2013-06-27 18:45:00,83.0,67.0,29.79,WNW,290,8.0,30.0,58,0.00,,,0.00,,2013-06-27 23:45:00,
2013-06-27 18:58:00,83.0,67.0,29.79,WNW,290,8.0,8.0,58,0.00,,,0.00,,2013-06-27 23:58:00,
2013-06-27 19:28:00,83.0,67.0,29.79,WNW,290,8.0,8.0,58,0.00,,,0.00,,2013-06-28 00:28:00,
2013-06-27 19:34:00,83.0,65.0,29.78,WNW,300,12.0,12.0,54,0.00,,,0.00,,2013-06-28 00:34:00,
2013-06-27 19:45:00,83.0,65.0,29.78,WNW,300,12.0,12.0,54,0.00,,,0.00,,2013-06-28 00:45:00,
2013-06-27 19:56:00,83.0,65.0,29.78,WNW,300,12.0,12.0,54,0.00,,,0.00,,2013-06-28 00:56:00,
2013-06-27 20:06:00,83.0,65.0,29.78,WNW,300,12.0,12.0,54,0.00,,,0.00,,2013-06-28 01:06:00,
2013-06-27 20:13:00,83.0,65.0,29.78,WNW,300,12.0,12.0,54,0.00,,,0.00,,2013-06-28 01:13:00,
2013-06-27 20:35:00,81.0,65.0,29.77,WNW,300,7.0,12.0,58,0.00,,,0.00,,2013-06-28 01:35:00,
2013-06-27 20:45:00,81.0,65.0,29.77,WNW,300,7.0,12.0,58,0.00,,,0.00,,2013-06-28 01:45:00,
2013-06-27 21:05:00,81.0,65.0,29.77,WNW,300,7.0,7.0,58,0.00,,,0.00,,2013-06-28 02:05:00,
2013-06-27 21:27:00,81.0,65.0,29.77,WNW,300,7.0,7.0,58,0.00,,,0.00,,2013-06-28 02:27:00,
2013-06-27 21:36:00,78.0,65.0,29.77,WNW,300,7.0,7.0,64,0.00,,,0.00,,2013-06-28 02:36:00,
2013-06-27 21:48:00,78.0,65.0,29.77,WNW,300,7.0,7.0,64,0.00,,,0.00,,2013-06-28 02:48:00,
2013-06-27 22:06:00,78.0,65.0,29.77,WNW,300,7.0,7.0,64,0.00,,,0.00,,2013-06-28 03:06:00,
2013-06-27 22:14:00,78.0,65.0,29.77,WNW,300,7.0,7.0,64,0.00,,,0.00,,2013-06-28 03:14:00,
2013-06-27 22:27:00,78.0,65.0,29.77,WNW,300,7.0,7.0,64,0.00,,,0.00,,2013-06-28 03:27:00,
2013-06-27 22:36:00,76.0,65.0,29.79,WNW,290,5.0,7.0,68,0.00,,,0.00,,2013-06-28 03:36:00,
2013-06-27 22:44:00,76.0,65.0,29.79,WNW,290,5.0,7.0,68,0.00,,,0.00,,2013-06-28 03:44:00,
2013-06-27 22:56:00,76.0,65.0,29.79,WNW,290,5.0,5.0,68,0.00,,,0.00,,2013-06-28 03:56:00,
2013-06-27 23:02:00,76.0,65.0,29.79,WNW,290,5.0,5.0,68,0.00,,,0.00,,2013-06-28 04:02:00,
2013-06-27 23:11:00,76.0,65.0,29.79,WNW,290,5.0,5.0,68,0.00,,,0.00,,2013-06-28 04:11:00,
2013-06-27 23:22:00,76.0,65.0,29.79,WNW,290,5.0,5.0,68,0.00,,,0.00,,2013-06-28 04:22:00,
2013-06-27 23:33:00,74.0,66.0,29.81,WNW,290,3.0,5.0,76,0.00,,,0.00,,2013-06-28 04:33:00,
2013-06-27 23:43:00,74.0,66.0,29.81,WNW,290,3.0,5.0,76,0.00,,,0.00,,2013-06-28 04:43:00,
2013-06-27 23:53:00,74.0,66.0,29.81,WNW,290,3.0,3.0,76,0.00,,,0.00,,2013-06-28 04:53:00,